TimeEDT,TemperatureF,Dew PointF,Humidity,Sea Level PressureIn,VisibilityMPH,Wind Direction,Wind SpeedMPH,Gust SpeedMPH,PrecipitationIn,Events,Conditions,WindDirDegrees,DateUTC
12:15 AM,69.8,59.0,68,29.69,10.0,NW,6.9,-,N/A,,Clear,320,2012-10-28 04:15:00
12:35 AM,68.0,59.0,73,29.69,10.0,NW,6.9,-,N/A,,Clear,320,2012-10-28 04:35:00
12:55 AM,68.0,59.0,73,29.69,10.0,NW,6.9,-,N/A,,Clear,320,2012-10-28 04:55:00
1:15 AM,68.0,59.0,73,29.69,10.0,NW,6.9,-,N/A,,Clear,310,2012-10-28 05:15:00
1:35 AM,68.0,59.0,73,29.69,10.0,WNW,6.9,-,N/A,,Clear,300,2012-10-28 05:35:00
1:55 AM,66.2,59.0,78,29.69,10.0,NW,5.8,-,N/A,,Clear,310,2012-10-28 05:55:00
2:15 AM,64.4,59.0,83,29.69,10.0,WNW,6.9,-,N/A,,Clear,300,2012-10-28 06:15:00
2:35 AM,64.4,59.0,83,29.69,10.0,WNW,5.8,-,N/A,,Clear,300,2012-10-28 06:35:00
2:55 AM,64.4,59.0,83,29.69,10.0,NW,8.1,-,N/A,,Clear,310,2012-10-28 06:55:00
3:15 AM,62.6,59.0,88,29.68,10.0,WNW,8.1,-,N/A,,Clear,300,2012-10-28 07:15:00
3:35 AM,62.6,57.2,82,29.68,10.0,WNW,6.9,-,N/A,,Clear,290,2012-10-28 07:35:00
3:55 AM,62.6,57.2,82,29.68,10.0,WNW,9.2,-,N/A,,Clear,300,2012-10-28 07:55:00
4:15 AM,62.6,55.4,77,29.69,10.0,WNW,9.2,-,N/A,,Clear,300,2012-10-28 08:15:00
4:35 AM,60.8,55.4,82,29.69,10.0,WNW,6.9,-,N/A,,Clear,300,2012-10-28 08:35:00
4:55 AM,60.8,55.4,82,29.68,10.0,WNW,8.1,-,N/A,,Clear,300,2012-10-28 08:55:00
5:15 AM,60.8,55.4,82,29.69,10.0,WNW,5.8,-,N/A,,Clear,290,2012-10-28 09:15:00
5:35 AM,59.0,55.4,88,29.69,10.0,WNW,6.9,-,N/A,,Clear,290,2012-10-28 09:35:00
5:55 AM,59.0,55.4,88,29.69,10.0,WNW,6.9,-,N/A,,Clear,290,2012-10-28 09:55:00
6:15 AM,59.0,53.6,82,29.69,10.0,West,4.6,-,N/A,,Clear,280,2012-10-28 10:15:00
6:35 AM,57.2,53.6,88,29.69,10.0,West,5.8,-,N/A,,Clear,280,2012-10-28 10:35:00
6:55 AM,57.2,53.6,88,29.70,10.0,West,6.9,-,N/A,,Clear,280,2012-10-28 10:55:00
7:15 AM,55.4,53.6,94,29.70,10.0,WNW,5.8,-,N/A,,Clear,290,2012-10-28 11:15:00
7:35 AM,55.4,53.6,94,29.70,10.0,West,6.9,-,N/A,,Clear,280,2012-10-28 11:35:00
7:55 AM,55.4,53.6,94,29.71,10.0,West,6.9,-,N/A,,Clear,280,2012-10-28 11:55:00
8:15 AM,55.4,53.6,94,29.71,10.0,West,5.8,-,N/A,,Clear,280,2012-10-28 12:15:00
8:35 AM,57.2,53.6,88,29.72,10.0,WNW,6.9,-,N/A,,Clear,290,2012-10-28 12:35:00
8:55 AM,59.0,53.6,82,29.72,10.0,NW,8.1,-,N/A,,Clear,310,2012-10-28 12:55:00
9:15 AM,60.8,53.6,77,29.72,10.0,WNW,8.1,-,N/A,,Clear,300,2012-10-28 13:15:00
9:35 AM,60.8,53.6,77,29.72,10.0,NW,9.2,-,N/A,,Clear,310,2012-10-28 13:35:00
9:55 AM,62.6,53.6,72,29.72,10.0,WNW,11.5,16.1,N/A,,Clear,300,2012-10-28 13:55:00
10:15 AM,64.4,53.6,68,29.72,10.0,NW,9.2,-,N/A,,Clear,310,2012-10-28 14:15:00
10:55 AM,68.0,55.4,64,29.71,10.0,NW,8.1,-,N/A,,Clear,320,2012-10-28 14:55:00
11:15 AM,68.0,55.4,64,29.71,10.0,WNW,8.1,-,N/A,,Clear,290,2012-10-28 15:15:00
11:35 AM,69.8,55.4,60,29.71,10.0,WNW,9.2,-,N/A,,Clear,290,2012-10-28 15:35:00
11:55 AM,69.8,55.4,60,29.71,10.0,WNW,5.8,-,N/A,,Clear,300,2012-10-28 15:55:00
12:15 PM,71.6,53.6,53,29.70,10.0,West,3.5,-,N/A,,Clear,280,2012-10-28 16:15:00
12:35 PM,71.6,55.4,57,29.69,10.0,West,6.9,-,N/A,,Clear,280,2012-10-28 16:35:00
12:55 PM,73.4,53.6,50,29.68,10.0,NW,9.2,-,N/A,,Clear,320,2012-10-28 16:55:00
1:15 PM,73.4,55.4,53,29.67,10.0,WNW,8.1,-,N/A,,Clear,290,2012-10-28 17:15:00
1:35 PM,75.2,55.4,50,29.66,10.0,WNW,9.2,17.3,N/A,,Clear,300,2012-10-28 17:35:00
1:55 PM,75.2,55.4,50,29.65,10.0,WNW,10.4,-,N/A,,Clear,290,2012-10-28 17:55:00
2:15 PM,77.0,53.6,44,29.65,10.0,WNW,10.4,-,N/A,,Clear,300,2012-10-28 18:15:00
2:35 PM,77.0,55.4,47,29.63,10.0,WNW,13.8,18.4,N/A,,Clear,290,2012-10-28 18:35:00
2:55 PM,77.0,53.6,44,29.63,10.0,WNW,9.2,19.6,N/A,,Clear,300,2012-10-28 18:55:00
3:15 PM,77.0,53.6,44,29.62,10.0,WNW,11.5,17.3,N/A,,Clear,290,2012-10-28 19:15:00
3:35 PM,77.0,53.6,44,29.62,10.0,West,10.4,21.9,N/A,,Mostly Cloudy,280,2012-10-28 19:35:00
3:55 PM,77.0,53.6,44,29.62,10.0,West,10.4,18.4,N/A,,Scattered Clouds,280,2012-10-28 19:55:00
4:15 PM,75.2,53.6,47,29.62,10.0,West,8.1,16.1,N/A,,Scattered Clouds,270,2012-10-28 20:15:00
4:35 PM,75.2,53.6,47,29.62,10.0,WNW,13.8,-,N/A,,Scattered Clouds,300,2012-10-28 20:35:00
4:55 PM,73.4,53.6,50,29.63,10.0,West,12.7,16.1,N/A,,Scattered Clouds,280,2012-10-28 20:55:00
5:15 PM,73.4,53.6,50,29.63,10.0,WNW,10.4,-,N/A,,Scattered Clouds,300,2012-10-28 21:15:00
5:35 PM,73.4,53.6,50,29.63,10.0,WNW,10.4,16.1,N/A,,Overcast,290,2012-10-28 21:35:00
5:55 PM,71.6,53.6,53,29.64,10.0,WNW,12.7,18.4,N/A,,Overcast,300,2012-10-28 21:55:00
6:15 PM,71.6,53.6,53,29.65,10.0,WNW,15.0,19.6,N/A,,Overcast,290,2012-10-28 22:15:00
6:35 PM,71.6,53.6,53,29.66,10.0,WNW,16.1,-,N/A,,Overcast,290,2012-10-28 22:35:00
6:55 PM,69.8,53.6,56,29.66,10.0,WNW,15.0,23.0,N/A,,Overcast,300,2012-10-28 22:55:00
7:15 PM,69.8,53.6,56,29.66,10.0,West,16.1,21.9,N/A,,Mostly Cloudy,280,2012-10-28 23:15:00
7:35 PM,68.0,53.6,60,29.67,10.0,WNW,15.0,23.0,N/A,,Mostly Cloudy,290,2012-10-28 23:35:00
7:55 PM,66.2,53.6,64,29.68,10.0,WNW,13.8,21.9,N/A,,Scattered Clouds,290,2012-10-28 23:55:00
8:15 PM,64.4,51.8,64,29.69,10.0,WNW,15.0,26.5,N/A,,Clear,290,2012-10-29 00:15:00
8:35 PM,64.4,51.8,64,29.69,10.0,WNW,15.0,21.9,N/A,,Clear,290,2012-10-29 00:35:00
9:15 PM,60.8,50.0,68,29.72,10.0,West,16.1,23.0,N/A,,Clear,280,2012-10-29 01:15:00
9:35 PM,59.0,50.0,72,29.73,10.0,WNW,15.0,19.6,N/A,,Scattered Clouds,290,2012-10-29 01:35:00
9:55 PM,59.0,48.2,67,29.74,10.0,WNW,15.0,24.2,N/A,,Scattered Clouds,290,2012-10-29 01:55:00
10:15 PM,59.0,46.4,63,29.75,10.0,WNW,12.7,26.5,N/A,,Clear,290,2012-10-29 02:15:00
10:35 PM,57.2,46.4,67,29.75,10.0,WNW,13.8,19.6,N/A,,Clear,290,2012-10-29 02:35:00
10:55 PM,57.2,46.4,67,29.75,10.0,WNW,12.7,-,N/A,,Scattered Clouds,290,2012-10-29 02:55:00
11:15 PM,55.4,46.4,72,29.75,10.0,WNW,13.8,19.6,N/A,,Scattered Clouds,290,2012-10-29 03:15:00
11:35 PM,55.4,46.4,72,29.75,10.0,WNW,12.7,17.3,N/A,,Mostly Cloudy,290,2012-10-29 03:35:00
11:55 PM,57.2,44.6,63,29.74,10.0,WNW,12.7,20.7,N/A,,Overcast,290,2012-10-29 03:55:00